Aérodrome :
LOGIN :

S'inscrire | Disclaimer

   EN    FR    IT 

 










Légende :    VFR   VFR Marginal   IFR   IFR Intensif   IFR Très Intensif
Visi : 
Plafond : 
>= 8 km
>= 3000ft
5 à 8 km
1000 à 3000 ft
1500m à 5 km
500 à 1000 ft
800 à 1500m
200 à 500 ft
< 800m
< 200 ft
Symboles :   Orages  Brouillard  Fortes neiges  Fortes précipitations  Vent > 20 kt
SIGMETs :   Divers  Orages  Givrage  Turbulence  Onde Orograph.  Cendres Volcan.







- Altitude de l'aérodrome : 359 ft
- Code IATA : BVA
- Voir les cartes d'approche


LFOB - Beauvais

DERNIER METAR :
  • 181600Z AUTO 12005KT 9999 FEW029 02/M01 Q1017 NOSIG

METARs EXPIRÉS :
  • 181530Z AUTO 12007KT 9999 FEW022 03/M01 Q1017 NOSIG
  • 181500Z AUTO 13007KT 9999 FEW022 04/M00 Q1017 NOSIG
  • 181430Z AUTO 14006KT 110V180 9999 FEW024 05/M00 Q1018 NOSIG
  • 181400Z AUTO 18006KT CAVOK 05/M00 Q1018 NOSIG
  • 181330Z AUTO 16007KT CAVOK 05/M00 Q1018 NOSIG

TAF TAF LFOB
Valide du 18 à 12h jusqu'au 19 à 12h UTC


181100Z 1812/1912 VRB03KT CAVOK
BECMG 1812/1815 16008KT
PROB30 1822/1903 BKN004
ATIS : +33 3 44 11 49 28
Pas de NOTAMs connus pour ce terrain.



MET'MAP, la Météo Aéronautique d'un coup d'oeil ! - Copyright ORBIFLY Décembre 2007 - Disclaimer

ORBIFLY MET'MAP TEAM :

Programmation & Développement : Alexandra Zaïnal
Conception & Développement : Baudouin d'Aumeries
Co-Programmation & Développement : Marc-Olivier Méhu
Soutien technique & logistique : Manuel Goepfert

Contact : metmap@orbifly.com




SOURCES & CREDITS :

   NOAA